Vorticity
13 13 16 17 14 17 11 8 12 6 15 19 17 8 21 29 22 20 9 4 7 18
12 13 13 17 18 15 13 10 8 10 11 18 19 13 13 22 20 31 5 22 12 -3
12 9 14 14 17 19 14 11 10 9 10 15 17 18 13 27 16 18 26 15 8 8
13 12 9 12 13 20 20 15 11 10 10 12 17 16 16 15 23 16 16 39 9 7
15 14 13 8 11 13 21 18 14 9 10 13 14 18 18 11 27 16 18 32 12 6
11 14 15 13 8 11 16 21 15 11 11 13 15 16 16 15 22 18 11 16 39 2
6 13 11 13 13 10 10 21 18 13 12 14 15 16 17 16 23 21 20 12 28 24
5 5 10 12 11 11 11 11 22 15 12 14 13 16 17 17 22 26 22 14 21 24
1 4 5 7 13 11 10 9 18 17 13 13 13 13 7 9 18 20 28 17 33 31
2 4 5 5 6 13 13 10 7 21 15 13 11 13 8 7 12 15 32 19 35 32
4 5 5 7 4 5 12 12 13 12 20 14 11 12 10 12 14 13 22 23 31 40
6 5 6 6 8 3 5 12 9 11 16 19 15 9 10 10 20 16 21 19 24 37
7 6 5 6 7 8 3 7 11 9 8 21 16 12 7 4 11 18 26 21 25 39
9 7 6 7 9 11 6 4 11 12 12 11 20 16 8 5 8 11 22 26 28 33
Height
3012 3009 3005 3002 2999 2997 2995 2993 2991 2988 2985 2983 2983 2982 2981 2984 2988 2991 2997 3005 3012 3020
3006 3002 2998 2995 2990 2988 2985 2983 2980 2977 2975 2972 2971 2970 2969 2971 2975 2975 2984 2990 2997 3003
2999 2995 2991 2987 2982 2978 2976 2973 2970 2967 2964 2962 2960 2959 2958 2959 2962 2962 2967 2974 2981 2989
2994 2989 2985 2980 2975 2970 2966 2963 2960 2958 2955 2952 2950 2948 2948 2947 2948 2949 2950 2959 2966 2976
2988 2984 2979 2974 2969 2963 2958 2954 2951 2948 2945 2942 2940 2938 2936 2936 2936 2937 2939 2943 2952 2961
2984 2979 2973 2968 2963 2957 2951 2947 2943 2939 2936 2933 2930 2928 2926 2924 2924 2925 2927 2931 2937 2946
2979 2974 2968 2963 2957 2951 2946 2939 2935 2932 2928 2924 2922 2919 2916 2913 2912 2911 2912 2917 2923 2930
2974 2969 2963 2958 2952 2946 2940 2934 2928 2924 2921 2917 2914 2911 2907 2905 2901 2900 2901 2904 2908 2916
2968 2964 2958 2953 2947 2940 2934 2928 2923 2918 2913 2910 2907 2904 2901 2898 2893 2891 2891 2894 2898 2905
2962 2957 2953 2947 2941 2935 2929 2923 2917 2912 2906 2903 2900 2897 2893 2889 2884 2882 2880 2882 2885 2891
2954 2950 2946 2941 2935 2929 2923 2917 2910 2906 2900 2895 2894 2889 2886 2881 2876 2873 2871 2871 2873 2878
2945 2941 2937 2933 2928 2922 2916 2911 2905 2899 2894 2888 2886 2882 2878 2873 2868 2865 2861 2861 2862 2865
2935 2932 2928 2924 2920 2914 2908 2903 2897 2893 2887 2882 2877 2875 2871 2867 2861 2857 2853 2851 2852 2856
2925 2921 2918 2914 2911 2905 2900 2895 2890 2885 2881 2876 2870 2867 2864 2860 2855 2850 2845 2843 2842 2845